This is the latest recevied weather packets stored in our database for station/object W4TJP. If no packets are shown the sender has not sent any weather packets the latest 10 day(s).
| Time | Temp. | Humidity | Pressure | Rain* | Wind** | Luminosity | Snow |
|---|---|---|---|---|---|---|---|
| 1777992831 | 19.44° C | 65% | 1013.8 hPa | 0 mm | - | 314 W/m² | - |
| 1777992528 | 19.44° C | 65% | 1013.4 hPa | 0 mm | - | 275 W/m² | - |
| 1777992227 | 19.44° C | 67% | 1013.6 hPa | 0 mm | - | 303 W/m² | - |
| 1777991924 | 19.44° C | 64% | 1013.4 hPa | 0 mm | - | 257 W/m² | - |
| 1777991621 | 18.89° C | 65% | 1013.5 hPa | 0 mm | - | 288 W/m² | - |
| 1777991318 | 18.89° C | 66% | 1013.3 hPa | 0 mm | - | 262 W/m² | - |
| 1777991015 | 18.89° C | 67% | 1013.5 hPa | 0 mm | - | 217 W/m² | - |
| 1777990713 | 18.89° C | 65% | 1013.4 hPa | 0 mm | - | 216 W/m² | - |
| 1777990410 | 18.33° C | 67% | 1013.4 hPa | 0 mm | - | 209 W/m² | - |
| 1777989802 | 18.33° C | 66% | 1013.6 hPa | 0 mm | - | 202 W/m² | - |
| 1777989500 | 18.33° C | 66% | 1013.3 hPa | 0 mm | - | 223 W/m² | - |
| 1777989196 | 18.33° C | 65% | 1013.6 hPa | 0 mm | - | 204 W/m² | - |
| 1777988892 | 18.89° C | 65% | 1013.3 hPa | 0 mm | - | 219 W/m² | - |
| 1777988589 | 18.33° C | 65% | 1013.1 hPa | 0 mm | - | 233 W/m² | - |
| 1777988286 | 18.33° C | 67% | 1013.2 hPa | 0 mm | - | 238 W/m² | - |
| 1777987982 | 17.78° C | 66% | 1013.2 hPa | 0 mm | - | 214 W/m² | - |
| 1777987678 | 18.33° C | 66% | 1013.3 hPa | 0 mm | - | 188 W/m² | - |
| 1777987376 | 17.78° C | 69% | 1013.3 hPa | 0 mm | - | 190 W/m² | - |
| 1777987073 | 17.78° C | 67% | 1013.5 hPa | 0 mm | - | 212 W/m² | - |
| 1777986770 | 17.78° C | 68% | 1013.6 hPa | 0 mm | - | 206 W/m² | - |
| 1777986467 | 17.22° C | 70% | 1013.4 hPa | 0 mm | - | 210 W/m² | - |
| 1777986166 | 16.67° C | 70% | 1013.5 hPa | 0 mm | - | 192 W/m² | - |
| 1777985863 | 16.11° C | 71% | 1013.7 hPa | 0 mm | - | 194 W/m² | - |
| 1777985560 | 15° C | 75% | 1013.5 hPa | 0 mm | - | 161 W/m² | - |
| 1777985257 | 15° C | 75% | 1013.5 hPa | 0 mm | - | 115 W/m² | - |
* Rain latest hour (hover to see other rain measurements)
** Current wind speed in m/s (hover to see current wind gust speed)